SCP
0 0 0 0 0 0 0 0 0 0 0 0 0 0 0 0 0 0 0 0 0 0
0 0 0 0 0 0 0 0 0 0 0 0 0 0 0 0 0 0 0 0 0 0
0 0 0 0 0 0 0 0 0 0 0 0 0 0 0 0 0 0 0 0 0 0
0 0 0 0 0 0 0 0 0 0 0 0 0 0 0 0 0 0 0 0 0 0
0 0 0 0 0 0 0 0 0 0 0 0 0 0 0 0 0 0 0 0 0 0
0 0 0 0 0 0 0 0 0 0 0 0 0 0 0 0 0 0 0 0 0 0
0 0 0 0 0 0 0 0 0 0 0 0 0 0 0 0 0 0 0 0 0 0
0 0 0 0 0 0 0 0 0 0 0 0 0 0 0 0 0 0 0 0 0 0
0 0 0 0 0 0 0 0 0 0 0 0 0 0 0 0 0 0 0 0 0 0
0 0 0 0 0 0 0 0 0 0 0 0 0 0 0 0 0 0 0 0 0 0
0 0 0 0 0 0 0 0 0 0 0 0 0 0 0 0 0 0 0 0 0 0
0 0 0 0 0 0 0 0 0 0 0 0 0 0 0 0 0 0 0 0 0 0
0 0 0 0 0 0 0 0 0 0 0 0 0 0 0 0 0 0 0 0 0 0
0 0 0 0 0 0 0 0 0 0 0 0 0 0 0 0 0 0 0 0 0 0
Wind_Speed_500mb
27 35 41 46 52 56 59 61 62 62 58 50 45 44 45 47 47 47 48 50 51 55
36 42 47 51 53 55 57 59 60 59 55 52 48 46 46 47 43 47 47 51 54 57
36 39 43 47 50 54 56 58 58 55 51 47 43 40 39 45 45 50 54 59 63 64
30 35 40 46 52 56 58 55 52 47 44 44 46 44 44 47 51 55 59 63 65 66
30 36 42 48 53 57 59 49 45 43 45 46 46 46 47 50 49 56 60 56 60 61
29 37 44 50 54 56 55 49 43 40 42 44 44 47 45 44 49 49 51 53 57 62
29 36 43 49 52 53 51 51 48 45 45 42 43 44 45 47 49 55 58 57 55 54
29 34 41 47 51 52 51 53 54 52 47 45 44 45 45 47 52 60 60 58 54 55
30 34 41 46 51 54 54 58 59 52 47 42 41 40 40 43 52 54 55 57 50 49
33 36 41 45 50 54 57 60 59 48 42 37 35 35 39 45 44 47 48 44 40 40
34 37 40 45 49 53 56 59 58 46 38 34 32 38 44 38 43 42 38 33 31 34
35 38 41 43 47 51 55 57 56 48 38 35 33 39 38 42 40 38 34 28 28 22
36 38 42 44 46 49 51 53 55 49 37 35 35 35 36 41 35 31 23 23 24 24
38 39 42 43 45 46 48 50 50 49 35 32 33 31 33 37 37 32 23 25 24 13
Wind_Direction_500mb
326 331 331 331 329 328 325 322 320 317 313 305 294 289 287 288 289 289 289 290 291 290
339 336 336 334 330 327 323 320 316 312 310 305 297 291 291 291 291 293 293 290 287 285
336 335 334 331 331 329 325 319 315 311 307 306 304 301 297 297 296 292 291 290 288 285
329 333 334 335 335 333 331 324 320 316 316 316 311 307 300 297 296 295 295 294 292 290
331 337 339 340 340 339 339 340 338 331 319 313 309 307 300 298 300 300 297 294 291 288
332 340 341 343 341 340 338 334 329 319 315 311 310 306 304 307 305 304 303 300 299 288
338 341 342 343 343 341 340 335 327 317 308 305 306 306 306 305 301 300 297 293 297 297
338 340 343 345 347 348 345 339 330 319 306 299 301 304 306 302 301 304 303 301 289 304
338 339 344 349 352 351 349 345 338 329 318 309 307 310 307 307 305 305 304 304 293 301
337 340 344 349 352 351 351 349 345 340 335 328 322 322 317 315 309 306 303 301 297 295
338 343 343 346 348 349 350 350 347 342 337 337 340 327 324 328 315 303 304 301 295 296
341 342 341 343 345 346 346 348 349 344 339 339 338 329 339 331 322 313 297 300 302 299
341 338 338 340 339 343 344 345 349 348 341 336 334 334 339 344 341 338 334 316 301 292
332 335 335 336 335 335 340 342 349 352 349 336 333 338 342 353 0 359 355 358 2 350
Wind_Speed_850mb
27 35 41 46 52 56 59 61 62 62 58 50 45 44 45 47 47 47 48 50 51 55
36 42 47 51 53 55 57 59 60 59 55 52 48 46 46 47 43 47 47 51 54 57
36 39 43 47 50 54 56 58 58 55 51 47 43 40 39 45 45 50 54 59 63 64
30 35 40 46 52 56 58 55 52 47 44 44 46 44 44 47 51 55 59 63 65 66
30 36 42 48 53 57 59 49 45 43 45 46 46 46 47 50 49 56 60 56 60 61
29 37 44 50 54 56 55 49 43 40 42 44 44 47 45 44 49 49 51 53 57 62
29 36 43 49 52 53 51 51 48 45 45 42 43 44 45 47 49 55 58 57 55 54
29 34 41 47 51 52 51 53 54 52 47 45 44 45 45 47 52 60 60 58 54 55
30 34 41 46 51 54 54 58 59 52 47 42 41 40 40 43 52 54 55 57 50 49
33 36 41 45 50 54 57 60 59 48 42 37 35 35 39 45 44 47 48 44 40 40
34 37 40 45 49 53 56 59 58 46 38 34 32 38 44 38 43 42 38 33 31 34
35 38 41 43 47 51 55 57 56 48 38 35 33 39 38 42 40 38 34 28 28 22
36 38 42 44 46 49 51 53 55 49 37 35 35 35 36 41 35 31 23 23 24 24
38 39 42 43 45 46 48 50 50 49 35 32 33 31 33 37 37 32 23 25 24 13
Wind_Direction_850mb
326 331 331 331 329 328 325 322 320 317 313 305 294 289 287 288 289 289 289 290 291 290
339 336 336 334 330 327 323 320 316 312 310 305 297 291 291 291 291 293 293 290 287 285
336 335 334 331 331 329 325 319 315 311 307 306 304 301 297 297 296 292 291 290 288 285
329 333 334 335 335 333 331 324 320 316 316 316 311 307 300 297 296 295 295 294 292 290
331 337 339 340 340 339 339 340 338 331 319 313 309 307 300 298 300 300 297 294 291 288
332 340 341 343 341 340 338 334 329 319 315 311 310 306 304 307 305 304 303 300 299 288
338 341 342 343 343 341 340 335 327 317 308 305 306 306 306 305 301 300 297 293 297 297
338 340 343 345 347 348 345 339 330 319 306 299 301 304 306 302 301 304 303 301 289 304
338 339 344 349 352 351 349 345 338 329 318 309 307 310 307 307 305 305 304 304 293 301
337 340 344 349 352 351 351 349 345 340 335 328 322 322 317 315 309 306 303 301 297 295
338 343 343 346 348 349 350 350 347 342 337 337 340 327 324 328 315 303 304 301 295 296
341 342 341 343 345 346 346 348 349 344 339 339 338 329 339 331 322 313 297 300 302 299
341 338 338 340 339 343 344 345 349 348 341 336 334 334 339 344 341 338 334 316 301 292
332 335 335 336 335 335 340 342 349 352 349 336 333 338 342 353 0 359 355 358 2 350